Regional Weather Roundup
Issued by NWS

Home | Current Version | Previous Version | Text Only | Print | Product List | Glossary Off
Versions: 1 2 3 4 5 6 7 8 9 10 11 12 13 14 15 16 17 18 19 20 21 22 23 24 25 26 27 28 29 30 31 32 33 34 35 36 37 38 39 40 41 42 43 44 45 46 47 48 49 50

103
ASUS45 KSLC 060710
RWRUT

UTAH REGIONAL WEATHER ROUNDUP
NATIONAL WEATHER SERVICE SALT LAKE CITY UT
100 AM MDT FRI MAY 06 2016

UTZ001>011-023>025-060800-

NORTHERN UTAH

CITY           SKY/WX    TMP DP  RH WIND       PRES   REMARKS
BRIGHAM CITY   CLOUDY    70  34  26 W3        29.83R
HILL AFB       CLOUDY    66  37  33 E16       29.83S
LOGAN          CLOUDY    64  40  41 CALM      29.83F
OGDEN          CLOUDY    71  35  26 SE13G22   29.80S
PROVO AIRPORT  MOCLDY    72  36  26 E15G36    29.80F
SALT LAKE CITY CLOUDY    71  36  27 SE7       29.79F
VERNAL         LGT RAIN  67  36  31 W20G32    29.97R
WENDOVER       MOCLDY    66  37  34 NE7       29.80R
HEBER CITY     CLOUDY    59  36  41 N5        29.91R

$$

UTZ012>022-026-027-060800-

SOUTHERN/CENTRAL UTAH

CITY           SKY/WX    TMP DP  RH WIND       PRES   REMARKS
BLANDING       CLOUDY    66  35  31 S9G23     29.99R
BRYCE CANYON   CLOUDY    44  31  60 CALM      29.97F
CEDAR CITY     CLOUDY    52  31  44 E5        29.85S
DELTA          MOCLDY    61  28  29 S13       29.82R
HANKSVILLE     CLOUDY    66  36  32 CALM      29.83S
MILFORD        CLOUDY    54  28  36 SW12      29.82S
MOAB/CYNLANDS  CLOUDY    68  40  35 E10       29.82S
PRICE          MOCLDY    55  37  50 N9        29.94F
ST GEORGE      CLOUDY    66  32  28 E7        29.75S

$$

REGIONAL REPORTS     COLORADO/ARIZONA

CITY           SKY/WX    TMP DP  RH WIND       PRES   REMARKS
CRAIG, CO      CLOUDY    47  35  63 SE3       29.99F
GRAND JUNCTION PTCLDY    67  34  29 VRB7      29.90R
RIFLE          CLOUDY    51  36  56 W9        29.95S
MONTROSE       CLOUDY    60  31  33 SE8       29.98S
CORTEZ         CLOUDY    65  34  31 E13       29.94F
PAGE, AZ       CLOUDY    67  18  15 CALM      29.78S
GRAND CANYON   CLOUDY    52  25  35 SW9       29.96F
KINGMAN        MOCLDY    63  25  23 SE12      29.78R
FLAGSTAFF      MOCLDY    50  19  29 SW21G37   29.96F

$$

REGIONAL REPORTS    NEVADA/IDAHO/WYOMING

CITY           SKY/WX    TMP DP  RH WIND       PRES   REMARKS
LAS VEGAS, NV  PTCLDY    70  37  29 S10       29.65R
ELY            CLOUDY    46  28  49 CALM      29.87F
ELKO           CLOUDY    59  32  36 E7        29.84R
POCATELLO, ID  CLOUDY    58  40  51 NE5       29.83S
BURLEY         LGT RAIN  61  47  59 SW9       29.85R
EVANSTON, WY   CLOUDY    55  35  47 E8        30.01F
ROCK SPRINGS   CLOUDY    55  29  36 S14       30.02R
KEMMERER         N/A     61  28  29 SE14G28   30.07R

$$




USA.gov is the U.S. government's official web portal to all federal, state and local government web resources and services.